This is the latest recevied weather packets stored in our database for station/object K5UTC. If no packets are shown the sender has not sent any weather packets the latest 1 day(s).
| Time | Temp. | Humidity | Pressure | Rain* | Wind** | Luminosity | Snow |
|---|---|---|---|---|---|---|---|
| 1778004227 | 26.67° C | 49% | 1012.1 hPa | 0 mm | 0.45 m/s, 72° | 559 W/m² | - |
| 1778003924 | 26.67° C | 44% | 1012.1 hPa | 0 mm | 0.45 m/s, 188° | 802 W/m² | - |
| 1778003620 | 26.67° C | 46% | 1012.2 hPa | 0 mm | 0.45 m/s, 191° | 459 W/m² | - |
| 1778003317 | 27.22° C | 44% | 1012.1 hPa | 0 mm | 1.34 m/s, 198° | 652 W/m² | - |
| 1778003014 | 27.22° C | 47% | 1012.1 hPa | 0 mm | 0.45 m/s, 185° | 744 W/m² | - |
| 1778002710 | 26.67° C | 48% | 1012.2 hPa | 0 mm | 0.45 m/s, 219° | 674 W/m² | - |
| 1778002407 | 26.67° C | 45% | 1012.4 hPa | 0 mm | 0.89 m/s, 120° | 669 W/m² | - |
| 1778002104 | 27.22° C | 44% | 1012.4 hPa | 0 mm | 0.89 m/s, 239° | 824 W/m² | - |
| 1778001802 | 27.22° C | 49% | 1012.7 hPa | 0 mm | 1.34 m/s, 205° | 820 W/m² | - |
| 1778001501 | 26.67° C | 44% | 1012.6 hPa | 0 mm | 0.89 m/s, 140° | 804 W/m² | - |
| 1778001199 | 26.67° C | 47% | 1012.8 hPa | 0 mm | 0 m/s | 618 W/m² | - |
| 1778000894 | 26.67° C | 45% | 1012.8 hPa | 0 mm | 0.89 m/s, 151° | 664 W/m² | - |
| 1778000592 | 26.67° C | 43% | 1012.9 hPa | 0 mm | 0.89 m/s, 179° | 623 W/m² | - |
| 1778000287 | 26.67° C | 47% | 1012.7 hPa | 0 mm | 0.45 m/s, 186° | 701 W/m² | - |
| 1777999983 | 26.67° C | 50% | 1012.8 hPa | 0 mm | 0.45 m/s, 194° | 789 W/m² | - |
| 1777999679 | 26.11° C | 42% | 1012.8 hPa | 0 mm | 0.45 m/s, 244° | 702 W/m² | - |
| 1777999376 | 26.67° C | 48% | 1012.8 hPa | 0 mm | 0.45 m/s, 179° | 731 W/m² | - |
| 1777999074 | 26.67° C | 46% | 1013 hPa | 0 mm | 1.34 m/s, 128° | 718 W/m² | - |
| 1777998772 | 26.11° C | 50% | 1013 hPa | 0 mm | 1.34 m/s, 199° | 735 W/m² | - |
| 1777998470 | 25.56° C | 52% | 1013.3 hPa | 0 mm | 0.89 m/s, 228° | 758 W/m² | - |
| 1777998166 | 25.56° C | 48% | 1013.3 hPa | 0 mm | 0.45 m/s, 131° | 711 W/m² | - |
| 1777997863 | 26.11° C | 51% | 1012.8 hPa | 0 mm | 0.45 m/s, 116° | 729 W/m² | - |
| 1777997561 | 26.11° C | 55% | 1012.7 hPa | 0 mm | 0 m/s | 713 W/m² | - |
| 1777997258 | 26.67° C | 50% | 1012.9 hPa | 0 mm | 0 m/s | 691 W/m² | - |
| 1777996956 | 25.56° C | 53% | 1013 hPa | 0 mm | 0.45 m/s, 168° | 656 W/m² | - |
* Rain latest hour (hover to see other rain measurements)
** Current wind speed in m/s (hover to see current wind gust speed)